Location: �chenoz-la-M�line
(47.6009°N, 6.1354°E)
Time: 16:28:14
(UTC+00:00)

Cosmos 1300 - Pass Details

Date: 27 January 2021
Orbit: 511 x 513 km, 82.5° (Epoch: 03 March)

Event Time Altitude Azimuth Distance (km) Brightness Sun altitude
Rises 05:39:41 0° 197° (SSW) 2,614 6.2 -14.9°
Reaches altitude 10° 05:41:50 10° 201° (SSW) 1,734 5.3 -14.5°
Maximum altitude 05:45:35 58° 282° (WNW) 606 2.7 -13.9°
Drops below altitude 10° 05:49:22 10° 2° (N) 1,750 5.3 -13.3°
Sets 05:51:33 0° 6° (N) 2,642 6.2 -12.9°
